GW5150 Weather Reports


time (UTC)temp
F
wind
direction
speed
knots
gust
knots
rain 1hr
in
rain 24hr
in
rain mn
in
humidity
%
barometer
mb
20260502183024 72 39 9.6 18.2 0.00 0.94 0.00 51 1020.0
20260502182507 72 22 7.8 17.4 0.00 0.94 0.00 52 1020.1
20260502182013 72 24 10.4 17.4 0.00 0.94 0.00 51 1020.3
20260502181528 72 9 9.6 14.8 0.00 0.95 0.00 53 1020.4
20260502181008 71 336 7.8 15.6 0.00 0.95 0.00 54 1020.4
20260502180506 71 352 10.4 16.5 0.00 0.95 0.00 53 1020.5
20260502170504 69 14 7.8 17.4 0.00 0.95 0.00 64 1020.7
20260502164007 69 83 8.7 14.8 0.00 0.97 0.00 60 1020.7
20260502163506 69 11 7.8 17.4 0.00 1.03 0.00 60 1020.8
20260502163004 68 55 7.8 17.4 0.00 1.08 0.00 62 1020.6
20260502162502 68 5 8.7 16.5 0.00 1.09 0.00 62 1020.6
20260502162001 68 51 5.2 20.0 0.00 1.09 0.00 65 1020.6
20260502161506 67 24 9.6 20.0 0.00 1.09 0.00 64 1020.5
20260502161003 67 32 8.7 20.0 0.00 1.10 0.00 65 1020.4
20260502160507 67 11 8.7 15.6 0.00 1.10 0.00 67 1020.3
20260502152008 65 32 4.3 18.2 0.00 1.10 0.00 76 1020.4
20260502151505 65 15 7.0 16.5 0.00 1.11 0.00 74 1020.4
20260502151003 64 55 8.7 17.4 0.00 1.14 0.00 75 1020.3
20260502150503 64 32 11.3 18.2 0.00 1.19 0.00 76 1020.2
20260502130507 59 66 5.2 15.6 0.00 1.29 0.00 82 1019.0
20260502123507 57 355 6.1 14.8 0.00 1.30 0.00 85 1018.6
20260502123014 57 32 9.6 14.8 0.00 1.30 0.00 85 1018.6
20260502122504 57 39 7.0 14.8 0.00 1.30 0.00 85 1018.5
20260502122008 57 50 8.7 14.8 0.00 1.31 0.00 85 1018.4
20260502121516 57 72 7.0 14.8 0.00 1.37 0.00 86 1018.3
20260502121004 57 33 5.2 13.9 0.00 1.37 0.00 86 1018.2
20260502120508 57 13 7.0 15.6 0.00 1.37 0.00 86 1018.2
20260502115507 57 34 7.0 13.0 0.00 1.37 0.00 86 1018.1
20260502115008 56 88 5.2 13.0 0.00 1.37 0.00 86 1018.0
20260502114534 56 10 7.8 15.6 0.00 1.37 0.00 85 1017.9
20260502114007 57 36 7.0 15.6 0.00 1.37 0.00 85 1017.8
20260502113510 57 59 7.8 14.8 0.00 1.37 0.00 85 1017.7
20260502113029 57 61 7.8 13.0 0.00 1.37 0.00 85 1017.7
20260502112508 57 22 7.0 13.0 0.00 1.37 0.00 85 1017.5
20260502112008 57 21 5.2 14.8 0.00 1.37 0.00 84 1017.4
20260502111514 57 24 5.2 14.8 0.00 1.37 0.00 84 1017.5
20260502111005 57 327 6.1 13.0 0.00 1.37 0.00 84 1017.4
20260502110506 57 9 4.3 9.6 0.00 1.37 0.00 85 1017.3
20260502110020 56 57 3.5 9.6 0.00 1.37 0.00 86 1017.1
20260502105512 56 39 2.6 9.6 0.00 1.37 0.00 86 1017.0
20260502105008 56 49 3.5 9.6 0.00 1.37 0.00 87 1017.0
20260502104523 57 20 4.3 9.6 0.00 1.37 0.00 87 1016.9
20260502104007 57 17 3.5 8.7 0.00 1.37 0.00 88 1016.8
20260502103512 56 9 2.6 8.7 0.00 1.37 0.00 88 1016.8
20260502103025 56 37 2.6 11.3 0.00 1.37 0.00 88 1016.7
20260502102510 56 53 2.6 11.3 0.00 1.37 0.00 88 1016.6
20260502102012 56 53 3.5 11.3 0.00 1.37 0.00 88 1016.5
20260502101525 56 70 3.5 8.7 0.00 1.37 0.00 88 1016.5
20260502101011 56 74 3.5 8.7 0.00 1.37 0.00 88 1016.4
20260502100508 57 57 4.3 11.3 0.00 1.37 0.00 87 1016.3
20260502091528 57 23 6.1 14.8 0.00 1.37 0.00 88 1015.7
20260502091010 57 35 5.2 14.8 0.00 1.37 0.00 88 1015.8
20260502090510 58 41 6.1 14.8 0.00 1.37 0.00 89 1015.7
20260502071503 58 31 7.8 15.6 0.00 1.37 0.00 89 1015.4
20260502071002 58 56 9.6 15.6 0.00 1.37 0.00 89 1015.2
20260502070503 58 67 6.1 14.8 0.00 1.37 0.00 90 1015.3
20260502070005 58 68 5.2 14.8 0.00 1.37 0.00 90 1015.3
20260502065504 58 22 3.5 13.0 0.00 1.37 0.00 90 1015.3
20260502065007 58 42 4.3 16.5 0.00 1.37 0.00 90 1015.4
20260502064521 58 52 6.1 20.9 0.00 1.37 0.00 90 1015.5
20260502064003 58 55 5.2 20.9 0.00 1.37 0.00 90 1015.5
20260502063510 58 13 8.7 18.2 0.00 1.37 0.00 90 1015.6
20260502063021 58 352 7.0 17.4 0.00 1.37 0.00 91 1015.5
20260502062502 58 5 6.1 16.5 0.00 1.37 0.00 91 1015.5
20260502062002 58 28 5.2 18.2 0.00 1.37 0.00 91 1015.4
20260502061503 58 17 9.6 20.0 0.00 1.37 0.00 91 1015.3
20260502061002 58 57 8.7 20.0 0.00 1.37 0.00 91 1015.3
20260502060503 58 107 9.6 16.5 0.00 1.37 0.00 91 1015.4
20260502060009 58 44 7.8 19.1 0.00 1.37 0.00 92 1015.3
20260502055503 58 36 10.4 19.1 0.00 1.37 0.00 92 1015.4
20260502055006 58 24 7.8 19.1 0.00 1.37 0.00 92 1015.3
20260502054509 58 59 10.4 19.1 0.00 1.37 0.00 92 1015.4
20260502054005 58 38 9.6 20.0 0.00 1.37 0.00 92 1015.3
20260502053504 58 16 7.8 20.0 0.01 1.37 0.00 93 1015.3
20260502053012 58 50 7.8 20.0 0.01 1.37 0.00 92 1015.1
20260502052507 58 352 8.7 18.2 0.01 1.37 0.00 93 1015.1
20260502052008 58 39 7.8 15.6 0.01 1.37 0.00 93 1015.3
20260502051521 58 38 8.7 17.4 0.01 1.37 0.00 92 1015.4
20260502051003 58 54 10.4 18.2 0.01 1.37 0.00 92 1015.6
20260502050503 59 32 8.7 19.1 0.02 1.37 0.00 92 1015.5
20260502050004 59 11 9.6 19.1 0.02 1.37 0.00 92 1015.5
20260502045503 59 11 9.6 16.5 0.03 1.37 1.37 93 1015.5
20260502045004 59 360 8.7 16.5 0.04 1.37 1.37 93 1015.5
20260502044506 59 41 6.1 13.9 0.04 1.37 1.37 93 1015.4
20260502044003 59 38 7.0 16.5 0.04 1.37 1.37 93 1015.4
20260502043503 59 36 8.7 16.5 0.03 1.36 1.36 93 1015.3
20260502043012 59 54 7.0 14.8 0.03 1.36 1.36 93 1015.2
20260502042504 59 56 3.5 13.0 0.03 1.36 1.36 93 1015.3
20260502042004 59 31 4.3 16.5 0.04 1.36 1.36 93 1015.5
20260502041514 59 47 6.1 16.5 0.04 1.36 1.36 93 1015.4
20260502041007 59 61 3.5 16.5 0.04 1.36 1.36 93 1015.2
20260502040507 59 38 5.2 16.5 0.03 1.35 1.35 93 1015.1
20260502040023 59 20 7.0 15.6 0.03 1.35 1.35 93 1015.1
20260502035507 59 32 6.1 13.9 0.03 1.34 1.34 93 1015.1
20260502035003 60 42 4.3 13.0 0.03 1.33 1.33 93 1014.8
20260502034504 60 69 2.6 14.8 0.03 1.33 1.33 93 1014.8
20260502034004 61 100 7.0 14.8 0.04 1.33 1.33 93 1014.7
20260502033504 61 53 3.5 13.9 0.05 1.33 1.33 93 1014.4
20260502033006 61 38 2.6 13.9 0.05 1.33 1.33 93 1014.3
20260502032504 61 32 5.2 13.9 0.06 1.33 1.33 93 1014.5
20260502032003 61 22 7.0 13.9 0.05 1.32 1.32 93 1014.2
20260502031514 61 40 7.8 13.9 0.06 1.32 1.32 93 1014.4
20260502031004 62 78 4.3 13.0 0.08 1.32 1.32 93 1014.2
20260502030507 62 32 6.1 13.9 0.09 1.32 1.32 93 1014.1
20260502030017 62 27 7.0 13.9 0.10 1.32 1.32 94 1014.1
20260502025506 62 44 7.8 12.2 0.11 1.31 1.31 94 1014.1
20260502025006 62 64 6.1 13.9 0.13 1.30 1.30 94 1014.0
20260502024521 62 12 5.2 16.5 0.15 1.30 1.30 94 1014.0
20260502024010 61 69 6.1 16.5 0.15 1.29 1.29 93 1014.2
20260502023503 61 24 9.6 16.5 0.15 1.28 1.28 93 1014.2
20260502023006 62 51 6.1 13.9 0.16 1.28 1.28 94 1013.8
20260502022504 62 352 5.2 12.2 0.16 1.27 1.27 94 1013.6
20260502022004 61 61 3.5 9.6 0.17 1.27 1.27 94 1013.6
20260502021509 61 53 3.5 13.9 0.20 1.26 1.26 94 1013.6
20260502021006 61 62 7.8 13.9 0.24 1.24 1.24 94 1013.5
20260502020503 61 15 7.0 13.0 0.25 1.23 1.23 93 1013.5
20260502020015 61 19 6.1 13.0 0.27 1.22 1.22 93 1013.3
20260502015504 61 53 7.0 13.0 0.29 1.20 1.20 93 1013.1
20260502015010 61 20 5.2 15.6 0.26 1.16 1.16 93 1012.8
20260502014523 61 32 7.0 15.6 0.24 1.15 1.15 93 1012.7
20260502014009 61 49 7.0 13.0 0.23 1.14 1.14 93 1012.4
20260502013507 62 45 5.2 13.0 0.22 1.13 1.13 93 1012.1
20260502013023 62 58 6.1 13.9 0.21 1.12 1.12 93 1011.8
20260502012508 62 30 6.1 13.9 0.20 1.11 1.11 93 1012.1
20260502012003 62 5 7.8 16.5 0.19 1.10 1.10 93 1011.8
20260502011508 62 46 7.8 20.0 0.15 1.05 1.05 92 1011.8
20260502011003 62 39 7.8 20.9 0.09 1.00 1.00 92 1011.6
20260502010504 62 17 11.3 20.9 0.07 0.98 0.98 92 1011.8
20260502010024 62 19 9.6 26.1 0.04 0.95 0.95 91 1011.5
20260502005505 63 32 12.2 26.1 0.00 0.91 0.91 91 1011.6
20260502005004 63 69 8.7 23.5 0.00 0.91 0.91 92 1011.0
20260502004526 63 13 13.0 23.5 0.00 0.91 0.91 92 1010.3
20260502004003 63 10 14.8 24.3 0.00 0.91 0.91 92 1010.3
20260502003508 63 5 9.6 24.3 0.00 0.91 0.91 93 1009.9
20260502003023 63 11 10.4 20.0 0.00 0.91 0.91 93 1009.8
20260502002509 63 352 7.8 16.5 0.00 0.91 0.91 93 1009.7
20260502002006 63 63 8.7 16.5 0.00 0.91 0.91 93 1009.3
20260502001524 63 44 7.0 16.5 0.00 0.91 0.91 93 1009.7
20260502001009 63 346 7.8 20.0 0.00 0.91 0.91 93 1010.2
20260502000509 63 48 8.7 20.0 0.00 0.91 0.91 93 1010.1
20260502000008 63 51 7.0 19.1 0.00 0.91 0.91 93 1010.0
20260501235503 63 11 8.7 19.1 0.01 0.91 0.91 93 1010.0
20260501235005 64 5 6.1 15.6 0.03 0.91 0.91 93 1009.7
20260501234503 64 90 4.3 15.6 0.04 0.91 0.91 93 1009.6
20260501234006 64 5 4.3 16.5 0.05 0.91 0.91 93 1009.4
20260501233501 64 69 6.1 16.5 0.05 0.91 0.91 93 1009.1
20260501233004 64 50 8.7 15.6 0.05 0.91 0.91 93 1009.1
20260501232504 64 40 7.8 14.8 0.05 0.91 0.91 93 1009.3
20260501232006 64 86 6.1 13.9 0.05 0.91 0.91 93 1009.5
20260501231503 64 30 7.8 17.4 0.05 0.91 0.91 94 1009.7
20260501231003 64 40 7.0 17.4 0.05 0.91 0.91 93 1009.5
20260501230504 65 44 6.1 16.5 0.05 0.91 0.91 93 1009.4
20260501230003 65 79 6.1 13.9 0.05 0.91 0.91 94 1009.5
20260501225505 65 58 5.2 13.9 0.05 0.90 0.90 93 1009.5
20260501225006 65 55 5.2 15.6 0.04 0.88 0.88 93 1009.6
20260501224505 65 52 4.3 15.6 0.04 0.87 0.87 93 1010.0
20260501224004 66 51 3.5 15.6 0.05 0.86 0.86 94 1010.3
20260501223504 66 108 6.1 15.6 0.08 0.86 0.86 94 1010.2
20260501223004 66 71 6.1 13.0 0.09 0.86 0.86 94 1010.2
20260501222504 66 86 7.0 15.6 0.09 0.86 0.86 94 1009.9
20260501222003 66 43 5.2 15.6 0.09 0.86 0.86 94 1009.7
20260501221503 66 54 7.0 15.6 0.10 0.86 0.86 94 1009.4
20260501221002 65 92 9.6 20.9 0.11 0.86 0.86 94 1009.0
20260501220502 65 104 11.3 20.9 0.16 0.86 0.86 94 1008.9
20260501220004 65 65 10.4 21.7 0.19 0.86 0.86 94 1009.2
20260501215503 65 92 11.3 21.7 0.18 0.85 0.85 94 1008.3
20260501215002 65 87 10.4 16.5 0.17 0.84 0.84 93 1010.0
20260501214508 65 79 9.6 16.5 0.17 0.83 0.83 93 1010.8
20260501214003 65 67 9.6 15.6 0.16 0.81 0.81 93 1011.1
20260501213503 65 30 3.5 18.2 0.15 0.78 0.78 93 1010.7
20260501213004 65 61 7.0 18.2 0.18 0.77 0.77 93 1010.8
20260501212504 65 72 7.8 14.8 0.21 0.77 0.77 93 1010.4
20260501212003 65 60 5.2 12.2 0.22 0.77 0.77 93 1010.1
20260501211508 65 28 6.1 13.0 0.22 0.76 0.76 93 1009.8
20260501211003 65 60 7.0 14.8 0.21 0.75 0.75 93 1010.1
20260501210502 65 67 7.0 14.8 0.16 0.70 0.70 93 1010.2
20260501210004 65 11 3.5 14.8 0.13 0.67 0.67 93 1010.0
20260501205503 65 5 3.5 16.5 0.13 0.67 0.67 93 1009.9
20260501205004 65 49 6.1 16.5 0.13 0.67 0.67 93 1009.3
20260501204515 65 55 7.8 18.2 0.14 0.66 0.66 93 1008.9
20260501204003 66 49 9.6 18.2 0.14 0.65 0.65 93 1008.5
20260501203505 66 87 10.4 16.5 0.12 0.63 0.63 93 1008.7
20260501203007 66 55 3.5 14.8 0.08 0.58 0.58 93 1009.2
20260501202503 66 9 6.1 14.8 0.05 0.56 0.56 93 1009.6
20260501202006 66 56 6.1 16.5 0.05 0.55 0.55 93 1009.0
20260501201506 66 27 7.8 16.5 0.06 0.54 0.54 93 1008.7
20260501201002 66 90 8.7 16.5 0.07 0.54 0.54 93 1008.7
20260501200503 66 51 10.4 18.2 0.08 0.54 0.54 93 1008.7
20260501200008 66 61 9.6 18.2 0.11 0.54 0.54 93 1008.9
20260501195505 66 65 11.3 16.5 0.11 0.54 0.54 92 1009.0
20260501195004 66 74 11.3 16.5 0.11 0.54 0.54 92 1009.1
20260501194506 66 93 7.8 14.8 0.09 0.52 0.52 92 1009.2
20260501194003 66 66 9.6 14.8 0.08 0.51 0.51 92 1009.5
20260501193507 66 53 6.1 13.9 0.08 0.51 0.51 93 1009.5
20260501193007 66 90 6.1 16.5 0.08 0.51 0.51 93 1009.5
20260501192506 66 84 7.8 16.5 0.08 0.51 0.51 92 1009.4
20260501192005 66 74 6.1 15.6 0.07 0.50 0.50 93 1009.6
20260501191520 66 65 5.2 13.9 0.06 0.48 0.48 92 1010.0
20260501191004 66 80 6.1 17.4 0.05 0.47 0.47 92 1010.0
20260501190504 66 82 8.7 17.4 0.04 0.46 0.46 92 1009.8
20260501190014 66 18 7.0 13.9 0.01 0.43 0.43 92 1009.9
20260501185503 66 54 7.0 17.4 0.01 0.43 0.43 92 1009.8
20260501185003 66 53 8.7 17.4 0.01 0.43 0.43 92 1009.6
20260501184523 66 105 7.8 16.5 0.01 0.43 0.43 92 1009.4
20260501184003 66 39 7.8 14.8 0.01 0.43 0.43 91 1009.5
20260501183503 66 88 5.2 13.0 0.01 0.43 0.43 92 1009.7